SCP
0 0 0 0 0 0 0 0 0 0 0 0 0 0 0 0 0 0 0 0 0 0 0 0 0 0 0 0 0 0 0 0 0 0 0 0 0 0
0 0 0 0 0 0 0 0 0 0 0 0 0 0 0 0 0 0 0 0 0 0 0 0 0 0 0 0 0 0 0 0 0 0 0 0 0 0
0 0 0 0 0 0 0 0 0 0 0 0 0 0 0 0 0 0 0 0 0 0 0 0 0 0 0 0 0 0 0 0 0 0 0 0 0 0
0 0 0 0 0 0 0 0 0 0 0 0 0 0 0 0 0 0 0 0 0 0 0 0 0 0 0 0 0 0 0 0 0 0 0 0 0 0
0 0 0 0 0 0 0 0 0 0 0 0 0 0 0 0 0 0 0 0 0 0 0 0 0 0 0 0 0 0 0 0 0 0 0 0 0 0
0 0 0 0 0 0 0 0 0 0 0 0 0 0 0 0 0 0 0 0 0 0 0 0 0 0 0 0 0 0 0 0 0 0 0 0 0 0
0 0 0 0 0 0 0 0 0 0 0 0 0 0 0 0 0 0 0 0 0 0 0 0 0 0 0 0 0 0 0 0 0 0 0 0 0 0
0 0 0 0 0 0 0 0 0 0 0 0 0 0 0 0 0 0 0 0 0 0 0 0 0 0 0 0 0 0 0 0 0 0 0 0 0 0
0 0 0 0 0 0 0 0 0 0 0 0 0 0 0 0 0 0 0 0 0 0 0 0 0 0 0 0 0 0 0 0 0 0 0 0 0 0
0 0 0 0 0 0 0 0 0 0 0 0 0 0 0 0 0 0 0 0 0 0 0 0 0 0 0 0 0 0 0 0 0 0 0 0 0 0
0 0 0 0 0 0 0 0 0 0 0 0 0 0 0 0 0 0 0 0 0 0 0 0 0 0 0 0 0 0 0 0 0 0 0 0 0 0
0 0 0 0 0 0 0 0 0 0 0 0 0 0 0 0 0 0 0 0 0 0 0 0 0 0 0 0 0 0 0 0 0 0 0 0 0 0
0 0 0 0 0 0 0 0 0 0 0 0 0 0 0 0 0 0 0 0 0 0 0 0 0 0 0 0 0 0 0 0 0 0 0 0 0 0
0 0 0 0 0 0 0 0 0 0 0 0 0 0 0 0 0 0 0 0 0 0 0 0 0 0 0 0 0 0 0 0 0 0 0 0 0 0
0 0 0 0 0 0 0 0 0 0 0 0 0 0 0 0 0 0 0 0 0 0 0 0 0 0 0 0 0 0 0 0 0 0 0 0 0 0
0 0 0 0 0 0 0 0 0 0 0 0 0 0 0 0 0 0 0 0 0 0 0 0 0 0 0 0 0 0 0 0 0 0 0 0 0 0
0 0 0 0 0 0 0 0 0 0 0 0 0 0 0 0 0 0 0 0 0 0 0 0 0 0 0 0 0 0 0 0 0 0 0 0 0 0
0 0 0 0 0 0 0 0 0 0 0 0 0 0 0 0 0 0 0 0 0 0 0 0 0 0 0 0 0 0 0 0 0 0 0 0 0 0
0 0 0 0 0 0 0 0 0 0 0 0 0 0 0 0 0 0 0 0 0 0 0 0 0 0 0 0 0 0 0 0 0 0 0 0 0 0
0 0 0 0 0 0 0 0 0 0 0 0 0 0 0 0 0 0 0 0 0 0 0 0 0 0 0 0 0 0 0 0 0 0 0 0 0 0
0 0 0 0 0 0 0 0 0 0 0 0 0 0 0 0 0 0 0 0 0 0 0 0 0 0 0 0 0 0 0 0 0 0 0 0 0 0
0 0 0 0 0 0 0 0 0 0 0 0 0 0 0 0 0 0 0 0 0 0 0 0 0 0 0 0 0 0 0 0 0 0 0 0 0 0
0 0 0 0 0 0 0 0 0 0 0 0 0 0 0 0 0 0 0 0 0 0 0 0 0 0 0 0 0 0 0 0 0 0 0 0 0 0
Wind_Speed
2 2 2 2 1 1 1 1 2 3 3 2 1 1 1 1 2 2 2 5 7 7 7 7 8 8 9 9 10 10 11 11 11 12 13 13 14 14
2 2 2 2 1 1 1 1 1 2 3 2 2 2 2 2 4 2 3 6 7 7 8 8 8 9 9 9 9 10 10 11 11 12 12 13 14 14
2 2 2 1 1 1 1 1 2 2 4 4 2 2 2 3 3 3 3 3 3 7 8 8 8 8 8 9 9 10 10 10 11 11 12 13 13 14
3 2 3 2 2 1 1 2 2 2 3 5 4 3 3 3 3 3 3 3 3 6 8 8 7 7 8 9 9 9 9 10 11 12 12 13 13 14
3 3 2 2 2 2 2 2 2 2 2 3 4 3 3 2 3 4 3 3 4 5 6 6 7 8 8 8 9 8 9 10 11 11 12 13 13 13
2 2 3 3 3 2 2 2 2 2 2 2 3 3 3 3 2 3 4 3 3 4 4 5 6 7 8 9 8 8 8 9 10 11 12 12 12 12
2 2 2 2 2 2 2 2 2 2 2 3 3 3 3 3 3 2 4 4 4 2 2 3 3 3 4 6 7 7 8 9 10 11 12 12 12 12
2 1 1 1 2 3 3 4 3 3 3 3 4 4 5 4 3 3 3 4 4 2 3 4 2 3 3 2 6 8 9 10 11 12 12 13 13 13
1 1 1 1 1 1 2 4 4 5 5 4 4 5 4 4 3 3 3 4 4 3 3 4 2 3 3 4 8 8 9 10 11 12 13 13 13 13
0 1 1 1 1 2 1 2 3 3 4 3 3 4 3 3 3 4 4 4 3 2 1 3 3 3 4 3 6 7 8 10 11 12 13 13 13 13
0 0 1 1 2 2 1 2 3 3 4 5 6 5 6 6 5 2 2 3 4 3 1 1 2 4 4 3 3 6 9 11 12 13 13 14 13 13
0 0 1 2 3 3 1 1 2 3 2 3 4 5 4 4 5 2 2 3 3 3 1 1 2 3 4 2 2 3 5 8 11 12 13 14 14 8
0 1 1 3 4 3 3 1 3 3 1 1 2 3 3 2 2 2 2 2 2 3 2 2 2 2 2 4 4 3 3 4 5 6 9 13 14 10
0 1 1 4 4 4 3 3 3 3 1 1 2 2 2 3 3 3 3 3 2 3 3 2 2 3 3 4 5 4 3 4 4 5 4 9 10 13
0 2 3 4 4 3 3 3 3 1 1 1 2 2 2 2 2 2 3 2 3 3 3 3 2 2 3 4 4 4 5 5 3 3 4 5 5 5
1 2 3 3 3 3 3 2 1 1 1 1 1 2 2 2 2 2 2 3 3 3 2 2 2 2 3 4 4 5 4 4 5 5 5 5 5 4
1 1 1 1 1 1 1 1 1 1 1 1 1 1 2 2 2 2 2 3 2 3 4 3 2 2 3 4 4 4 4 4 4 5 6 7 5 4
0 0 0 1 1 1 1 1 1 1 1 1 1 1 2 2 2 2 2 2 3 3 3 3 3 3 3 3 3 3 3 4 4 5 5 6 7 5
0 1 1 1 1 1 1 1 2 2 1 1 1 1 2 2 2 2 2 2 3 3 3 3 3 3 4 5 4 2 3 4 5 5 4 5 6 7
1 1 1 2 1 1 1 2 2 1 1 1 2 2 2 2 2 2 2 2 3 3 3 3 3 3 3 4 5 6 7 5 4 5 6 5 5 7
1 1 1 1 1 1 1 2 2 2 2 2 2 2 2 2 2 2 2 3 3 3 4 4 4 6 3 2 3 5 4 6 7 6 6 6 6 5
1 1 1 1 1 2 2 2 2 2 2 2 2 2 2 2 2 2 2 2 2 3 4 4 4 3 2 3 4 6 6 6 7 9 8 6 4 4
1 1 2 2 2 2 2 2 3 2 2 2 2 2 2 2 2 2 2 2 2 3 3 4 4 3 3 3 4 4 6 6 5 5 4 8 9 10
Wind_Direction
207 211 214 229 232 230 217 196 213 264 277 263 280 301 317 319 305 292 285 296 301 302 306 309 312 313 314 316 318 320 320 319 316 314 312 311 313 314
203 208 222 230 228 216 206 228 226 235 266 272 273 290 309 317 310 303 288 299 294 297 303 307 310 313 316 318 319 321 321 319 318 316 314 314 314 315
211 207 224 229 230 235 224 238 254 241 263 287 292 299 311 305 306 295 290 283 287 296 301 304 306 312 317 319 320 320 321 322 320 318 316 316 316 316
223 217 229 236 240 244 239 246 251 240 242 275 288 294 293 287 293 296 302 304 296 297 300 300 305 313 317 318 318 321 324 324 322 320 319 317 315 315
221 222 233 221 242 250 254 256 261 267 253 259 283 297 302 306 310 307 308 304 304 301 300 304 307 311 314 319 321 324 326 327 327 327 325 321 318 318
226 222 232 230 234 244 255 258 277 285 279 269 277 291 297 305 310 309 312 308 302 306 305 308 308 311 314 318 321 325 326 329 332 333 333 329 325 324
223 227 234 251 264 266 271 270 263 260 272 272 273 286 288 307 294 294 300 309 303 291 309 302 301 294 301 311 320 324 330 334 335 335 335 333 330 326
225 251 252 231 261 278 286 295 283 261 260 265 273 277 278 287 292 295 304 316 306 305 320 300 289 293 300 298 316 327 332 333 333 335 335 333 330 327
217 225 268 273 293 274 297 313 304 295 287 271 266 270 276 278 282 286 282 281 279 289 310 292 291 296 301 309 320 325 332 336 337 335 333 331 330 328
209 213 225 243 269 296 310 312 300 303 303 299 277 283 295 293 268 265 272 290 288 278 273 283 299 302 307 300 303 321 337 340 337 335 332 331 331 331
263 283 282 266 278 309 326 310 313 318 336 331 327 324 323 320 316 312 292 290 303 301 291 278 306 320 306 287 303 332 336 333 332 333 333 334 334 333
21 307 292 294 294 314 310 284 300 310 329 338 334 331 328 325 326 304 268 275 300 295 292 344 320 336 317 299 315 326 327 323 329 332 334 336 337 335
248 295 291 298 307 310 317 303 291 317 323 327 328 329 333 334 329 328 314 278 278 279 285 324 303 305 283 302 311 310 317 318 322 322 327 332 334 334
259 297 295 302 312 318 324 320 325 344 352 337 329 325 329 334 338 342 350 350 322 280 284 290 279 283 296 300 301 311 319 310 311 312 314 325 329 327
331 321 330 329 324 326 318 321 340 8 332 314 310 312 316 318 330 339 350 356 347 325 312 306 287 285 285 285 291 299 311 307 305 316 319 317 313 318
5 347 349 352 351 345 341 346 359 328 315 286 304 312 323 334 334 329 331 339 340 335 331 323 307 290 291 282 277 288 295 294 309 316 315 311 308 307
1 28 7 352 360 359 354 347 345 340 333 324 308 312 319 329 328 329 328 333 327 320 330 335 327 306 284 275 276 278 289 295 299 311 318 316 311 311
22 138 268 287 294 297 308 317 323 324 311 304 295 293 303 313 317 326 335 334 323 319 320 324 334 336 333 312 262 272 292 299 306 310 311 311 310 313
233 226 242 257 272 279 281 285 295 303 304 291 283 283 290 296 303 315 326 324 318 318 319 322 330 334 332 326 312 300 307 307 309 309 306 304 301 304
240 240 251 258 266 273 277 289 292 289 283 278 279 278 276 280 286 298 306 310 311 315 317 321 330 330 313 301 296 299 302 297 303 308 310 305 292 294
261 265 260 263 271 271 274 276 276 273 272 274 272 277 282 283 280 285 293 300 309 310 314 316 312 317 303 296 297 301 303 308 309 305 309 312 313 316
263 263 268 272 271 270 275 274 271 265 262 264 269 274 279 280 279 283 287 294 300 304 307 307 309 315 314 305 302 304 309 314 315 316 312 304 305 308
253 254 259 261 264 269 269 270 269 264 261 262 263 268 273 280 284 282 281 285 292 300 309 313 318 318 312 300 299 302 308 316 321 326 321 322 319 309